Lid_Strength_Index
4 3 2 2 2 2 2 2 2 2 2 2 2 1 1 1 1 1 1 1 1 1 1 2 2 2 2 2 2 2 2 3 4 3 11 11 10 11 11 9 9 9 8
5 5 4 4 4 3 3 3 3 2 2 2 1 1 1 1 1 1 1 1 1 1 2 1 2 1 2 2 2 2 2 2 3 4 11 12 11 11 11 11 10 10 10
7 6 6 6 6 5 5 6 6 7 7 6 5 4 4 4 3 3 3 3 2 1 1 1 1 2 3 3 3 2 2 4 7 9 10 12 12 11 12 11 12 12 11
9 9 8 9 9 10 10 10 9 9 9 8 7 7 7 6 5 5 5 5 4 3 2 2 3 4 5 4 4 4 5 6 9 10 11 13 12 13 12 13 14 13 14
11 11 11 11 11 11 10 11 10 9 9 9 8 8 7 7 7 7 7 7 7 5 5 4 5 8 10 8 6 6 6 8 11 11 12 12 13 13 13 13 13 13 15
11 11 12 12 12 12 12 12 11 11 10 9 9 9 9 9 9 9 8 8 7 8 7 7 7 10 8 8 8 7 7 8 12 12 12 13 12 13 12 13 14 14 15
12 12 13 13 13 13 13 12 12 12 11 12 11 10 10 10 9 9 10 9 9 9 10 10 10 10 10 10 9 9 10 8 8 10 11 11 12 11 12 12 13 13 14
13 13 14 14 14 13 13 13 13 13 13 12 12 11 11 11 10 10 10 10 10 10 10 10 10 10 10 10 11 11 11 11 11 10 10 10 10 11 11 11 12 13 14
13 13 14 14 14 14 14 13 13 14 13 12 12 12 12 12 10 10 10 11 12 11 12 11 11 11 10 10 12 12 12 12 10 10 10 10 10 10 11 12 13 14 15
13 13 14 14 14 13 13 13 14 14 13 13 13 13 13 13 11 9 11 12 12 13 12 12 12 12 10 10 12 12 13 13 12 12 12 11 10 10 10 11 12 13 14
14 14 15 14 13 13 13 14 14 13 13 13 13 13 13 13 12 9 10 12 12 13 13 13 12 10 9 10 11 12 12 12 12 12 12 12 12 12 12 12 11 12 13
15 15 15 14 14 13 14 15 14 13 13 13 13 13 13 13 12 10 10 10 11 13 14 13 12 10 10 10 11 10 10 12 12 12 13 13 13 13 12 13 12 12 12
15 15 15 14 14 14 14 15 14 13 12 13 13 14 15 14 13 12 11 11 12 14 13 11 10 10 11 11 10 11 13 13 13 14 14 14 13 13 13 13 13 13 12
15 15 14 14 14 14 14 14 14 13 12 13 13 16 15 14 13 13 13 14 13 13 11 11 11 11 12 12 12 12 13 13 14 14 14 13 13 13 12 12 13 13 13
15 15 14 14 14 15 15 14 14 14 12 13 15 15 15 14 13 12 12 13 13 13 13 13 13 14 14 14 13 13 13 13 14 14 14 13 13 13 13 12 13 13 14
15 15 14 15 15 15 15 15 13 12 11 11 12 14 15 12 11 11 11 11 12 13 14 14 14 14 15 14 14 14 14 13 13 13 13 13 13 13 13 13 13 13 13
15 15 15 15 15 15 16 16 15 13 11 11 11 11 12 11 10 10 10 11 11 12 14 15 15 15 14 15 15 15 14 14 14 14 13 13 13 13 13 12 12 13 13
15 15 15 14 14 14 15 15 15 16 16 15 13 12 11 11 11 10 10 11 12 13 13 14 14 14 14 14 14 15 14 14 13 14 13 13 13 13 13 13 13 13 13
16 15 15 15 14 16 16 16 17 18 16 17 16 14 13 11 11 11 11 13 14 16 16 18 18 18 18 18 18 17 17 16 16 15 15 15 14 14 14 14 14 15 14
18 18 17 17 18 19 19 19 17 15 16 17 17 17 16 14 16 18 18 18 19 20 20 22 23 24 23 22 22 21 21 20 20 19 19 18 17 16 16 16 16 16 16
18 18 17 17 17 18 17 15 15 16 17 19 20 17 16 19 23 25 26 26 25 26 27 26 26 26 26 25 25 24 24 23 23 23 22 20 19 19 18 17 17 17 17
17 16 16 16 15 15 15 15 15 17 19 22 25 20 20 26 27 29 29 30 30 30 30 28 28 28 28 27 26 26 26 26 25 24 23 23 22 21 20 19 20 19 18
16 17 17 17 18 20 20 20 21 24 26 27 28 28 29 29 30 30 30 30 30 31 32 30 29 31 31 30 29 28 26 26 25 26 25 24 24 23 22 21 21 21 20
19 20 21 22 23 23 24 25 26 26 27 27 28 28 28 29 28 29 31 32 33 32 32 32 32 31 31 31 29 29 29 29 28 26 26 25 25 24 23 23 21 20 19
22 23 23 24 24 25 26 25 26 26 26 27 27 27 28 29 30 30 31 31 32 31 32 33 31 30 32 32 30 29 29 25 25 26 27 27 25 26 26 24 23 21 20
23 23 24 24 24 24 25 25 26 26 26 27 27 28 28 28 29 29 30 30 30 29 30 30 30 31 30 29 28 26 25 21 22 23 21 24 25 25 24 24 25 22 21